Date String (YYYY-MM-DD hh:mm:ss) UTC,Instrument flags,absolute air pressure of the measurement (hPa),sample flow rate (lpm),inlet stack bypass flow (lpm),air temperature of the measurement (°C),ambient temperature measured by the external sensor (°C),aerosol sample conditioner tube jacket temperature (°C),OPC LED temperature (°C),internal box temperature (°C),relative humidity of the measurement (%),span deviation,mass concentration of particles derived from Lorenz-Mie calculation of OPC scattering (μg/m³),mass concentration of particles derived from Lorenz-Mie calculation of OPC scattering (μg/m³),mass concentration of particles derived from Lorenz-Mie calculation of OPC scattering (μg/m³)
DateTimeUTC,F1_M11,P_M11,Q1_M11,Q2_M11,T1_M11,T2_M11,T3_M11,T4_M11,T5_M11,U1_M11,ZSPAN_M11,X0_M11,X2_M11,X1_M11
2024-06-05 10:00:00,SystemResetWarning,0827.3,5.00,000.00,031.1,030.3,000.0,039.4,032.7,014.5,0000.0,0013.41,0003.60,0001.65
2024-06-05 10:01:00,SystemResetWarning,0827.3,5.01,000.00,031.1,030.3,000.0,039.4,032.7,014.4,0000.0,0013.49,0003.57,0001.62
2024-06-05 10:02:00,SystemResetWarning,0827.3,5.00,000.00,031.1,030.3,000.0,039.4,032.7,014.4,0000.0,0013.64,0003.59,0001.61
2024-06-05 10:03:00,SystemResetWarning,0827.4,4.99,000.00,031.1,030.3,000.0,039.4,032.7,014.4,0000.0,0013.29,0003.59,0001.60
2024-06-05 10:04:00,SystemResetWarning,0827.4,4.99,000.00,031.1,030.3,000.0,039.4,032.7,014.4,0000.0,0012.79,0003.53,0001.59
2024-06-05 10:05:00,SystemResetWarning,0827.4,4.99,000.00,031.1,030.3,000.0,039.4,032.7,014.5,0000.0,0012.31,0003.51,0001.57
2024-06-05 10:06:00,SystemResetWarning,0827.4,5.01,000.00,031.1,030.3,000.0,039.4,032.7,014.5,0000.0,0013.99,0003.59,0001.56
2024-06-05 10:07:00,SystemResetWarning,0827.5,5.01,000.00,031.1,030.3,000.0,039.4,032.7,014.5,0000.0,0014.35,0003.58,0001.56
2024-06-05 10:08:00,SystemResetWarning,0827.5,4.99,000.00,031.1,030.3,000.0,039.5,032.8,014.5,0000.0,0014.73,0003.54,0001.57
2024-06-05 10:09:00,SystemResetWarning,0827.5,5.00,000.00,031.1,030.3,000.0,039.5,032.8,014.5,0000.0,0014.71,0003.53,0001.56
2024-06-05 10:10:00,SystemResetWarning,0827.5,4.99,000.00,031.1,030.3,000.0,039.5,032.8,014.4,0000.0,0014.48,0003.49,0001.57
2024-06-05 10:11:00,SystemResetWarning,0827.9,5.00,000.00,031.1,030.3,000.0,039.5,032.8,014.4,0000.0,0013.02,0003.45,0001.58
2024-06-05 10:12:00,SystemResetWarning,0827.4,4.99,000.00,031.1,030.3,000.0,039.5,032.7,014.4,0000.0,0013.55,0003.45,0001.58
2024-06-05 10:13:00,SystemResetWarning,0827.4,5.01,000.00,031.1,030.3,000.0,039.5,032.8,014.5,0000.0,0013.67,0003.51,0001.60
2024-06-05 10:14:00,SystemResetWarning,0827.6,5.01,000.00,031.1,030.3,000.0,039.4,032.7,014.4,0000.0,0013.93,0003.51,0001.60
2024-06-05 10:15:00,SystemResetWarning,0827.5,5.00,000.00,031.1,030.3,000.0,039.4,032.7,014.4,0000.0,0014.28,0003.51,0001.59
2024-06-05 10:16:00,SystemResetWarning,0827.6,5.00,000.00,031.1,030.3,000.0,039.4,032.7,014.6,0000.0,0014.53,0003.50,0001.60
2024-06-05 10:17:00,SystemResetWarning,0827.5,5.00,000.00,031.1,030.3,000.0,039.5,032.7,014.7,0000.0,0013.15,0003.41,0001.61
2024-06-05 10:18:00,SystemResetWarning,0827.4,5.00,000.00,031.1,030.3,000.0,039.5,032.7,014.7,0000.0,0012.28,0003.40,0001.61
2024-06-05 10:19:00,SystemResetWarning,0827.4,5.00,000.00,031.1,030.3,000.0,039.5,032.7,014.7,0000.0,0011.86,0003.42,0001.62
2024-06-05 10:20:00,SystemResetWarning,0827.4,5.00,000.00,031.1,030.3,000.0,039.5,032.7,014.6,0000.0,0012.05,0003.40,0001.62
2024-06-05 10:21:00,SystemResetWarning,0827.4,5.00,000.00,031.1,030.3,000.0,039.5,032.7,014.7,0000.0,0012.16,0003.36,0001.62
2024-06-05 10:22:00,SystemResetWarning,0827.4,5.00,000.00,031.1,030.3,000.0,039.5,032.8,014.6,0000.0,0012.29,0003.37,0001.61
2024-06-05 10:23:00,SystemResetWarning,0827.4,5.00,000.00,031.1,030.3,000.0,039.5,032.8,014.6,0000.0,0012.27,0003.37,0001.60
2024-06-05 10:24:00,SystemResetWarning,0827.5,5.00,000.00,031.1,030.3,000.0,039.5,032.8,014.5,0000.0,0011.82,0003.31,0001.59
2024-06-05 10:25:00,SystemResetWarning,0827.6,4.99,000.00,031.1,030.3,000.0,039.5,032.8,014.3,0000.0,0011.42,0003.30,0001.58
2024-06-05 10:26:00,SystemResetWarning,0827.5,5.00,000.00,031.1,030.3,000.0,039.5,032.7,014.4,0000.0,0010.93,0003.27,0001.58
2024-06-05 10:27:00,SystemResetWarning,0827.4,5.00,000.00,031.1,030.3,000.0,039.5,032.7,014.4,0000.0,0010.42,0003.28,0001.58
2024-06-05 10:28:00,SystemResetWarning,0827.4,5.00,000.00,031.1,030.3,000.0,039.5,032.7,014.4,0000.0,0010.26,0003.31,0001.58
2024-06-05 10:29:00,SystemResetWarning,0827.4,5.00,000.00,031.1,030.3,000.0,039.5,032.7,014.5,0000.0,0011.26,0003.29,0001.57
2024-06-05 10:30:00,SystemResetWarning,0827.3,5.00,000.00,031.1,030.3,000.0,039.5,032.7,014.4,0000.0,0011.82,0003.25,0001.54
2024-06-05 10:31:00,SystemResetWarning,0827.4,5.00,000.00,031.1,030.3,000.0,039.5,032.7,014.4,0000.0,0012.30,0003.26,0001.54
2024-06-05 10:32:00,SystemResetWarning,0827.4,5.00,000.00,031.1,030.3,000.0,039.5,032.7,014.5,0000.0,0012.87,0003.29,0001.55
2024-06-05 10:33:00,SystemResetWarning,0827.6,5.00,000.00,031.1,030.3,000.0,039.5,032.8,014.5,0000.0,0013.15,0003.31,0001.55
2024-06-05 10:34:00,SystemResetWarning,0827.5,4.99,000.00,031.1,030.3,000.0,039.5,032.8,014.5,0000.0,0012.97,0003.32,0001.55
2024-06-05 10:35:00,SystemResetWarning,0827.5,5.00,000.00,031.1,030.3,000.0,039.5,032.8,014.5,0000.0,0013.03,0003.32,0001.57
2024-06-05 10:36:00,SystemResetWarning,0827.5,4.99,000.00,031.1,030.3,000.0,039.5,032.8,014.5,0000.0,0012.92,0003.34,0001.59
2024-06-05 10:37:00,SystemResetWarning,0827.6,5.00,000.00,031.1,030.4,000.0,039.5,032.8,014.4,0000.0,0012.99,0003.36,0001.60
2024-06-05 10:38:00,SystemResetWarning,0827.5,5.00,000.00,031.1,030.4,000.0,039.5,032.8,014.3,0000.0,0013.16,0003.38,0001.59
2024-06-05 10:39:00,SystemResetWarning,0828.0,5.00,000.00,031.1,030.4,000.0,039.5,032.8,014.3,0000.0,0013.24,0003.39,0001.59
2024-06-05 10:40:00,SystemResetWarning,0827.8,5.00,000.00,031.1,030.4,000.0,039.5,032.8,014.4,0000.0,0012.52,0003.38,0001.59
2024-06-05 10:41:00,SystemResetWarning,0827.5,5.01,000.00,031.1,030.4,000.0,039.5,032.8,014.4,0000.0,0012.71,0003.45,0001.59
2024-06-05 10:42:00,SystemResetWarning,0827.5,5.01,000.00,031.1,030.4,000.0,039.5,032.8,014.3,0000.0,0012.63,0003.47,0001.60
2024-06-05 10:43:00,SystemResetWarning,0827.6,5.00,000.00,031.1,030.4,000.0,039.5,032.8,014.2,0000.0,0012.91,0003.48,0001.60
2024-06-05 10:44:00,SystemResetWarning,0827.5,5.00,000.00,031.1,030.4,000.0,039.5,032.8,014.2,0000.0,0013.07,0003.48,0001.57
2024-06-05 10:45:00,SystemResetWarning,0827.5,5.00,000.00,031.1,030.4,000.0,039.5,032.8,014.2,0000.0,0012.60,0003.47,0001.56
2024-06-05 10:46:00,SystemResetWarning,0827.5,5.00,000.00,031.1,030.4,000.0,039.5,032.8,014.1,0000.0,0011.88,0003.47,0001.55
2024-06-05 10:47:00,SystemResetWarning,0827.5,5.00,000.00,031.1,030.4,000.0,039.5,032.8,014.0,0000.0,0011.91,0003.45,0001.52
2024-06-05 10:48:00,SystemResetWarning,0827.7,5.00,000.00,031.1,030.4,000.0,039.5,032.8,014.1,0000.0,0012.04,0003.46,0001.51
2024-06-05 10:49:00,SystemResetWarning,0827.7,5.00,000.00,031.2,030.4,000.0,039.5,032.8,014.1,0000.0,0013.23,0003.45,0001.50
2024-06-05 10:50:00,SystemResetWarning,0827.7,5.00,000.00,031.2,030.4,000.0,039.6,032.8,014.0,0000.0,0013.83,0003.44,0001.49
2024-06-05 10:51:00,SystemResetWarning,0827.5,5.00,000.00,031.2,030.4,000.0,039.6,032.8,014.0,0000.0,0013.71,0003.40,0001.49
2024-06-05 10:52:00,SystemResetWarning,0827.6,5.00,000.00,031.2,030.4,000.0,039.6,032.8,014.0,0000.0,0013.42,0003.35,0001.49
2024-06-05 10:53:00,SystemResetWarning,0827.6,5.00,000.00,031.2,030.4,000.0,039.6,032.9,014.0,0000.0,0013.06,0003.34,0001.48
2024-06-05 10:54:00,SystemResetWarning,0827.6,5.00,000.00,031.2,030.4,000.0,039.6,032.8,014.2,0000.0,0011.79,0003.30,0001.47
2024-06-05 10:55:00,SystemResetWarning,0827.6,5.00,000.00,031.2,030.4,000.0,039.6,032.9,014.3,0000.0,0011.70,0003.30,0001.45
2024-06-05 10:56:00,SystemResetWarning,0827.6,5.00,000.00,031.2,030.4,000.0,039.6,032.9,014.1,0000.0,0011.97,0003.27,0001.45
2024-06-05 10:57:00,SystemResetWarning,0827.4,5.00,000.00,031.2,030.4,000.0,039.6,032.9,013.8,0000.0,0012.16,0003.23,0001.42
2024-06-05 10:58:00,SystemResetWarning,0827.6,5.01,000.00,031.2,030.4,000.0,039.6,032.8,013.8,0000.0,0011.67,0003.19,0001.42
2024-06-05 10:59:00,SystemResetWarning,0827.4,5.00,000.00,031.2,030.4,000.0,039.6,032.8,013.9,0000.0,0011.70,0003.20,0001.42
